UKV401 EGPH-EGKK

Flight info

Callsign UKV401
Flight time 1h 4m
Altitude 37000
Route GOSAM P600 FENIK L612 NAVSO DCT ADZOP DCT EGTOC DCT KEPAD L151 DISIT
Aircraft B38M/M-SDE1FGHILORVWXY/HB1

Departure

Time 2026-04-21 17:43
Airport Edinburgh Airport (EGPH)

Arrival

Time 2026-04-21 18:47
Airport London Gatwick Airport (EGKK)
Time Latitude Longitude Altitude Speed Heading
2026-04-21 17:06 55.94750 -3.35489 116 ft 0 kts 208°
2026-04-21 17:16 55.94750 -3.35488 119 ft 0 kts 207°
2026-04-21 17:17 55.94751 -3.35487 119 ft 0 kts 202°
2026-04-21 17:33 55.94763 -3.35477 114 ft 3 kts 211°
2026-04-21 17:33 55.94777 -3.35462 115 ft 3 kts 215°
2026-04-21 17:34 55.94790 -3.35439 116 ft 3 kts 247°
2026-04-21 17:34 55.94792 -3.35408 115 ft 3 kts 286°
2026-04-21 17:34 55.94784 -3.35376 119 ft 2 kts 299°
2026-04-21 17:34 55.94780 -3.35362 115 ft 1 kts 298°
2026-04-21 17:35 55.94779 -3.35360 115 ft 0 kts 298°
2026-04-21 17:37 55.94781 -3.35365 115 ft 2 kts 298°
2026-04-21 17:37 55.94795 -3.35411 115 ft 5 kts 298°
2026-04-21 17:38 55.94815 -3.35476 118 ft 7 kts 298°
2026-04-21 17:38 55.94843 -3.35569 117 ft 10 kts 298°
2026-04-21 17:38 55.94879 -3.35685 117 ft 12 kts 298°
2026-04-21 17:38 55.94923 -3.35822 117 ft 14 kts 308°
2026-04-21 17:39 55.95009 -3.35838 117 ft 13 kts 20°
2026-04-21 17:39 55.95075 -3.35931 119 ft 14 kts 298°
2026-04-21 17:39 55.95114 -3.36105 114 ft 16 kts 288°
2026-04-21 17:39 55.95125 -3.36306 114 ft 18 kts 246°
2026-04-21 17:40 55.95060 -3.36503 117 ft 19 kts 239°
2026-04-21 17:40 55.94987 -3.36718 116 ft 21 kts 238°
2026-04-21 17:40 55.94908 -3.36951 116 ft 23 kts 239°
2026-04-21 17:40 55.94823 -3.37202 118 ft 24 kts 239°
2026-04-21 17:41 55.94732 -3.37470 118 ft 26 kts 238°
2026-04-21 17:41 55.94636 -3.37751 117 ft 27 kts 239°
2026-04-21 17:41 55.94535 -3.38052 116 ft 29 kts 239°
2026-04-21 17:41 55.94427 -3.38367 118 ft 30 kts 238°
2026-04-21 17:42 55.94319 -3.38686 116 ft 24 kts 237°
2026-04-21 17:42 55.94281 -3.38836 118 ft 10 kts 294°
2026-04-21 17:42 55.94335 -3.38919 118 ft 12 kts 328°
2026-04-21 17:42 55.94418 -3.38949 114 ft 14 kts 37°
2026-04-21 17:43 55.94480 -3.38781 115 ft 28 kts 59°
2026-04-21 17:43 55.94729 -3.38046 116 ft 107 kts 59°
2026-04-21 17:43 55.95227 -3.36596 276 ft 155 kts 58°
2026-04-21 17:43 55.95789 -3.34996 1418 ft 125 kts 56°
2026-04-21 17:44 55.96328 -3.33996 2613 ft 110 kts 49°
2026-04-21 17:44 55.96906 -3.33017 3126 ft 119 kts 50°
2026-04-21 17:44 55.97526 -3.31972 3644 ft 125 kts 49°
2026-04-21 17:44 55.98173 -3.30889 4147 ft 131 kts 49°
2026-04-21 17:45 55.98864 -3.29733 4653 ft 141 kts 49°
2026-04-21 17:45 55.99758 -3.28783 4977 ft 166 kts 21°
2026-04-21 17:45 56.00978 -3.28745 5194 ft 187 kts 353°
2026-04-21 17:45 56.02226 -3.29722 5328 ft 210 kts 323°
2026-04-21 17:46 56.03078 -3.31955 5460 ft 229 kts 288°
2026-04-21 17:46 56.03124 -3.34879 5451 ft 243 kts 253°
2026-04-21 17:46 56.02646 -3.37826 5573 ft 259 kts 253°
2026-04-21 17:46 56.02168 -3.41057 5594 ft 277 kts 253°
2026-04-21 17:47 56.01667 -3.44491 5970 ft 289 kts 254°
2026-04-21 17:47 56.01177 -3.47969 7091 ft 289 kts 254°
2026-04-21 17:47 56.00676 -3.51490 8069 ft 293 kts 254°
2026-04-21 17:47 56.00176 -3.54996 9092 ft 296 kts 254°
2026-04-21 17:48 55.99828 -3.57425 9728 ft 301 kts 254°
2026-04-21 17:48 55.99128 -3.62276 10942 ft 306 kts 251°
2026-04-21 17:48 55.98090 -3.65556 11762 ft 301 kts 220°
2026-04-21 17:48 55.96329 -3.67397 12652 ft 294 kts 190°
2026-04-21 17:49 55.94332 -3.67606 13400 ft 291 kts 168°
2026-04-21 17:49 55.92317 -3.67033 14248 ft 295 kts 168°
2026-04-21 17:49 55.90261 -3.66553 14997 ft 298 kts 168°
2026-04-21 17:49 55.88208 -3.66059 15715 ft 302 kts 168°
2026-04-21 17:50 55.86118 -3.65548 16450 ft 305 kts 168°
2026-04-21 17:50 55.83988 -3.65026 17163 ft 309 kts 168°
2026-04-21 17:50 55.81843 -3.64497 17854 ft 313 kts 168°
2026-04-21 17:50 55.79676 -3.63964 18558 ft 316 kts 168°
2026-04-21 17:51 55.77508 -3.63428 19171 ft 320 kts 168°
2026-04-21 17:51 55.75280 -3.62882 19766 ft 322 kts 168°
2026-04-21 17:51 55.73049 -3.62335 20380 ft 324 kts 168°
2026-04-21 17:51 55.70831 -3.61789 20995 ft 326 kts 168°
2026-04-21 17:52 55.68568 -3.61235 21591 ft 328 kts 168°
2026-04-21 17:52 55.66304 -3.60677 22194 ft 329 kts 169°
2026-04-21 17:52 55.64041 -3.60120 22714 ft 333 kts 169°
2026-04-21 17:52 55.61741 -3.59561 23238 ft 335 kts 169°
2026-04-21 17:53 55.59425 -3.58989 23785 ft 338 kts 170°
2026-04-21 17:53 55.57056 -3.58417 24045 ft 349 kts 171°
2026-04-21 17:53 55.54606 -3.57839 24356 ft 355 kts 170°
2026-04-21 17:53 55.52120 -3.57242 24522 ft 366 kts 171°
2026-04-21 17:54 55.49565 -3.56645 24725 ft 376 kts 169°
2026-04-21 17:54 55.46939 -3.56026 24714 ft 392 kts 171°
2026-04-21 17:54 55.44178 -3.55384 24733 ft 406 kts 171°
2026-04-21 17:54 55.41321 -3.54717 24763 ft 419 kts 171°
2026-04-21 17:55 55.38387 -3.54037 24795 ft 432 kts 171°
2026-04-21 17:55 55.35395 -3.53341 24794 ft 444 kts 171°
2026-04-21 17:55 55.32304 -3.52615 25158 ft 446 kts 171°
2026-04-21 17:55 55.29202 -3.51855 25484 ft 450 kts 171°
2026-04-21 17:56 55.26077 -3.51099 25756 ft 455 kts 172°
2026-04-21 17:56 55.22968 -3.50350 26124 ft 457 kts 171°
2026-04-21 17:56 55.19807 -3.49576 26429 ft 461 kts 172°
2026-04-21 17:56 55.16592 -3.48802 26596 ft 467 kts 172°
2026-04-21 17:57 55.14459 -3.48289 26872 ft 468 kts 173°
2026-04-21 17:57 55.11222 -3.47503 27159 ft 471 kts 173°
2026-04-21 17:57 55.07961 -3.46720 27465 ft 474 kts 173°
2026-04-21 17:57 55.04672 -3.45927 27756 ft 478 kts 174°
2026-04-21 17:58 55.01372 -3.45134 28083 ft 479 kts 173°
2026-04-21 17:58 54.98062 -3.44334 28494 ft 479 kts 173°
2026-04-21 17:58 54.94857 -3.43560 28887 ft 479 kts 174°
2026-04-21 17:58 54.91531 -3.42757 29022 ft 486 kts 175°
2026-04-21 17:59 54.88171 -3.41959 29351 ft 487 kts 175°
2026-04-21 17:59 54.84796 -3.41151 29727 ft 488 kts 175°
2026-04-21 17:59 54.81422 -3.40346 30087 ft 489 kts 176°
2026-04-21 17:59 54.78089 -3.39552 30439 ft 490 kts 176°
2026-04-21 18:00 54.74663 -3.38737 30760 ft 490 kts 176°
2026-04-21 18:00 54.71334 -3.37948 31085 ft 490 kts 176°
2026-04-21 18:00 54.67943 -3.37141 31383 ft 491 kts 177°
2026-04-21 18:00 54.64522 -3.36337 31580 ft 494 kts 176°
2026-04-21 18:01 54.61125 -3.35536 31947 ft 493 kts 176°
2026-04-21 18:01 54.57771 -3.34748 32331 ft 491 kts 176°
2026-04-21 18:01 54.54395 -3.33955 32728 ft 489 kts 176°
2026-04-21 18:01 54.51023 -3.33165 33117 ft 487 kts 176°
2026-04-21 18:02 54.47661 -3.32379 33494 ft 485 kts 175°
2026-04-21 18:02 54.44304 -3.31596 33821 ft 484 kts 176°
2026-04-21 18:02 54.41002 -3.30827 34113 ft 485 kts 175°
2026-04-21 18:02 54.37654 -3.30052 34400 ft 484 kts 175°
2026-04-21 18:03 54.34311 -3.29276 34710 ft 483 kts 175°
2026-04-21 18:03 54.30980 -3.28505 34975 ft 482 kts 175°
2026-04-21 18:03 54.27660 -3.27740 35242 ft 481 kts 175°
2026-04-21 18:03 54.24336 -3.26974 35510 ft 480 kts 175°
2026-04-21 18:04 54.21020 -3.26212 35766 ft 480 kts 175°
2026-04-21 18:04 54.17710 -3.25547 36004 ft 478 kts 178°
2026-04-21 18:04 54.14432 -3.25044 36249 ft 478 kts 177°
2026-04-21 18:04 54.11113 -3.24510 36502 ft 477 kts 177°
2026-04-21 18:05 54.07796 -3.23967 36745 ft 477 kts 177°
2026-04-21 18:05 54.04493 -3.23425 36985 ft 476 kts 176°
2026-04-21 18:05 54.01203 -3.22844 37208 ft 476 kts 173°
2026-04-21 18:05 53.98008 -3.21322 37353 ft 479 kts 160°
2026-04-21 18:06 53.91744 -3.17348 37375 ft 478 kts 161°
2026-04-21 18:06 53.85593 -3.13409 37376 ft 478 kts 161°
2026-04-21 18:07 53.79300 -3.09371 37372 ft 481 kts 161°
2026-04-21 18:07 53.73067 -3.05382 37376 ft 481 kts 161°
2026-04-21 18:08 53.66808 -3.01390 37372 ft 480 kts 161°
2026-04-21 18:08 53.60530 -2.97398 37368 ft 480 kts 161°
2026-04-21 18:09 53.54303 -2.93452 37372 ft 481 kts 161°
2026-04-21 18:09 53.48028 -2.89488 37372 ft 481 kts 161°
2026-04-21 18:10 53.41783 -2.85554 37375 ft 480 kts 161°
2026-04-21 18:10 53.35518 -2.81622 37372 ft 480 kts 161°
2026-04-21 18:11 53.29294 -2.77725 37369 ft 480 kts 161°
2026-04-21 18:11 53.23000 -2.73797 37371 ft 481 kts 161°
2026-04-21 18:12 53.16734 -2.69901 37364 ft 480 kts 161°
2026-04-21 18:12 53.10490 -2.66030 37356 ft 480 kts 161°
2026-04-21 18:13 53.04249 -2.62172 37358 ft 480 kts 161°
2026-04-21 18:13 52.97987 -2.58314 37338 ft 480 kts 161°
2026-04-21 18:14 52.88571 -2.52533 37348 ft 480 kts 162°
2026-04-21 18:15 52.82324 -2.48698 37344 ft 482 kts 160°
2026-04-21 18:15 52.79364 -2.46052 37339 ft 482 kts 146°
2026-04-21 18:15 52.76581 -2.42939 37335 ft 485 kts 148°
2026-04-21 18:16 52.70977 -2.36839 37358 ft 485 kts 147°
2026-04-21 18:16 52.65358 -2.30667 37348 ft 482 kts 147°
2026-04-21 18:17 52.59783 -2.24556 37348 ft 480 kts 148°
2026-04-21 18:17 52.54300 -2.18563 37124 ft 464 kts 148°
2026-04-21 18:17 52.51640 -2.15665 36542 ft 455 kts 148°
2026-04-21 18:18 52.49054 -2.12848 35988 ft 447 kts 148°
2026-04-21 18:18 52.46474 -2.10045 35395 ft 440 kts 149°
2026-04-21 18:18 52.43933 -2.07286 34753 ft 436 kts 149°
2026-04-21 18:18 52.41390 -2.04530 34057 ft 439 kts 149°
2026-04-21 18:19 52.38823 -2.01748 33219 ft 442 kts 149°
2026-04-21 18:19 52.36279 -1.98998 32239 ft 445 kts 149°
2026-04-21 18:19 52.33678 -1.96191 31204 ft 451 kts 149°
2026-04-21 18:19 52.31039 -1.93347 30043 ft 458 kts 149°
2026-04-21 18:20 52.28353 -1.90453 28730 ft 465 kts 149°
2026-04-21 18:20 52.25636 -1.87534 27451 ft 470 kts 149°
2026-04-21 18:20 52.22889 -1.84586 26233 ft 474 kts 148°
2026-04-21 18:20 52.20154 -1.81656 25092 ft 476 kts 148°
2026-04-21 18:21 52.17384 -1.78692 23974 ft 477 kts 148°
2026-04-21 18:21 52.14597 -1.75714 22714 ft 475 kts 148°
2026-04-21 18:21 52.11841 -1.72772 21537 ft 470 kts 147°
2026-04-21 18:21 52.09152 -1.69910 20715 ft 457 kts 147°
2026-04-21 18:22 52.06577 -1.67173 20645 ft 427 kts 147°
2026-04-21 18:22 52.04172 -1.64619 20626 ft 400 kts 147°
2026-04-21 18:22 52.01910 -1.62221 20496 ft 378 kts 147°
2026-04-21 18:22 51.99725 -1.59904 19924 ft 372 kts 147°
2026-04-21 18:23 51.97581 -1.57635 19439 ft 364 kts 147°
2026-04-21 18:23 51.95479 -1.55412 18956 ft 356 kts 147°
2026-04-21 18:23 51.93427 -1.53246 18459 ft 348 kts 146°
2026-04-21 18:23 51.91435 -1.51146 17931 ft 341 kts 146°
2026-04-21 18:24 51.89465 -1.49071 17398 ft 334 kts 146°
2026-04-21 18:24 51.87531 -1.47034 16866 ft 328 kts 145°
2026-04-21 18:24 51.85632 -1.45037 16361 ft 321 kts 144°
2026-04-21 18:24 51.83789 -1.43102 15868 ft 315 kts 144°
2026-04-21 18:25 51.81965 -1.41189 15425 ft 307 kts 144°
2026-04-21 18:25 51.80222 -1.39364 15364 ft 290 kts 144°
2026-04-21 18:25 51.78554 -1.37618 15340 ft 278 kts 143°
2026-04-21 18:25 51.76973 -1.35962 15333 ft 271 kts 145°
2026-04-21 18:26 51.75390 -1.34307 15305 ft 272 kts 145°
2026-04-21 18:26 51.73800 -1.32647 15297 ft 271 kts 145°
2026-04-21 18:26 51.72216 -1.30992 15290 ft 272 kts 145°
2026-04-21 18:26 51.70620 -1.29329 15298 ft 271 kts 144°
2026-04-21 18:27 51.69035 -1.27676 15271 ft 270 kts 144°
2026-04-21 18:27 51.67410 -1.25984 15274 ft 284 kts 144°
2026-04-21 18:27 51.65752 -1.24260 15250 ft 289 kts 145°
2026-04-21 18:27 51.64042 -1.22481 15275 ft 294 kts 144°
2026-04-21 18:28 51.62320 -1.20694 15263 ft 294 kts 144°
2026-04-21 18:28 51.60595 -1.18906 15268 ft 294 kts 144°
2026-04-21 18:28 51.58897 -1.17147 15261 ft 294 kts 144°
2026-04-21 18:28 51.57176 -1.15365 15262 ft 291 kts 144°
2026-04-21 18:29 51.55506 -1.13638 15266 ft 279 kts 144°
2026-04-21 18:29 51.53886 -1.11964 15267 ft 275 kts 144°
2026-04-21 18:29 51.52295 -1.10320 15264 ft 274 kts 144°
2026-04-21 18:29 51.50692 -1.08666 15264 ft 273 kts 144°
2026-04-21 18:30 51.49086 -1.07010 15269 ft 274 kts 144°
2026-04-21 18:30 51.47494 -1.05370 15272 ft 274 kts 145°
2026-04-21 18:30 51.45876 -1.03705 15271 ft 274 kts 144°
2026-04-21 18:30 51.44282 -1.02067 15271 ft 274 kts 145°
2026-04-21 18:31 51.42669 -1.00410 15272 ft 275 kts 146°
2026-04-21 18:31 51.41058 -0.98756 15275 ft 274 kts 144°
2026-04-21 18:31 51.39447 -0.97102 15271 ft 274 kts 145°
2026-04-21 18:31 51.37855 -0.95472 15277 ft 274 kts 143°
2026-04-21 18:32 51.36254 -0.93833 15285 ft 272 kts 144°
2026-04-21 18:32 51.34660 -0.92223 15259 ft 272 kts 149°
2026-04-21 18:32 51.32849 -0.91223 15082 ft 277 kts 168°
2026-04-21 18:32 51.30926 -0.90820 14785 ft 280 kts 171°
2026-04-21 18:33 51.29005 -0.90445 14440 ft 281 kts 169°
2026-04-21 18:33 51.27052 -0.90130 14077 ft 283 kts 171°
2026-04-21 18:33 51.25067 -0.89841 13672 ft 285 kts 172°
2026-04-21 18:33 51.23119 -0.89534 13384 ft 282 kts 171°
2026-04-21 18:34 51.21212 -0.89209 13356 ft 272 kts 169°
2026-04-21 18:34 51.19325 -0.88935 13290 ft 271 kts 173°
2026-04-21 18:34 51.17447 -0.88618 12983 ft 272 kts 171°
2026-04-21 18:34 51.15550 -0.88296 12594 ft 274 kts 170°
2026-04-21 18:35 51.14290 -0.88090 12330 ft 275 kts 171°
2026-04-21 18:35 51.11781 -0.87362 11788 ft 271 kts 149°
2026-04-21 18:35 51.10430 -0.85460 11349 ft 262 kts 116°
2026-04-21 18:35 51.09836 -0.82749 10999 ft 258 kts 105°
2026-04-21 18:36 51.09179 -0.80079 10682 ft 259 kts 111°
2026-04-21 18:36 51.08448 -0.77449 10340 ft 260 kts 112°
2026-04-21 18:36 51.07704 -0.74811 9988 ft 260 kts 112°
2026-04-21 18:36 51.06965 -0.72217 9619 ft 261 kts 112°
2026-04-21 18:37 51.06210 -0.69588 9235 ft 259 kts 112°
2026-04-21 18:37 51.05469 -0.67008 8855 ft 252 kts 112°
2026-04-21 18:37 51.04748 -0.64501 8498 ft 248 kts 113°
2026-04-21 18:37 51.04030 -0.62016 8154 ft 249 kts 112°
2026-04-21 18:38 51.03297 -0.59489 7794 ft 250 kts 112°
2026-04-21 18:38 51.02576 -0.57002 7449 ft 251 kts 113°
2026-04-21 18:38 51.01854 -0.54512 7289 ft 243 kts 112°
2026-04-21 18:38 51.01164 -0.52124 7281 ft 230 kts 112°
2026-04-21 18:39 51.00516 -0.49878 7273 ft 217 kts 112°
2026-04-21 18:39 50.99850 -0.47803 7270 ft 204 kts 119°
2026-04-21 18:39 50.99082 -0.45939 7216 ft 203 kts 121°
2026-04-21 18:39 50.98294 -0.44075 7012 ft 203 kts 121°
2026-04-21 18:40 50.97506 -0.42209 6785 ft 203 kts 121°
2026-04-21 18:40 50.96947 -0.40206 6515 ft 198 kts 91°
2026-04-21 18:40 50.97113 -0.38807 6309 ft 197 kts 63°
2026-04-21 18:40 50.98620 -0.37265 5923 ft 211 kts
2026-04-21 18:41 51.00063 -0.37814 5689 ft 222 kts 342°
2026-04-21 18:41 51.01480 -0.38813 5476 ft 221 kts 341°
2026-04-21 18:41 51.02873 -0.39825 5159 ft 218 kts 341°
2026-04-21 18:41 51.04253 -0.40830 4760 ft 217 kts 341°
2026-04-21 18:42 51.05621 -0.41834 4314 ft 215 kts 341°
2026-04-21 18:42 51.06953 -0.42834 3873 ft 214 kts 341°
2026-04-21 18:42 51.08293 -0.43870 3407 ft 213 kts 341°
2026-04-21 18:42 51.09632 -0.44691 3076 ft 192 kts
2026-04-21 18:43 51.10795 -0.44332 3051 ft 164 kts 39°
2026-04-21 18:43 51.11480 -0.42992 3028 ft 156 kts 72°
2026-04-21 18:43 51.11742 -0.41328 2861 ft 155 kts 78°
2026-04-21 18:43 51.11958 -0.39743 2701 ft 138 kts 78°
2026-04-21 18:44 51.12161 -0.38259 2518 ft 136 kts 77°
2026-04-21 18:44 51.12362 -0.36801 2327 ft 133 kts 76°
2026-04-21 18:44 51.12559 -0.35370 2143 ft 129 kts 76°
2026-04-21 18:44 51.12745 -0.34028 1971 ft 124 kts 76°
2026-04-21 18:45 51.12926 -0.32709 1797 ft 121 kts 75°
2026-04-21 18:45 51.13109 -0.31384 1633 ft 124 kts 75°
2026-04-21 18:45 51.13296 -0.30035 1431 ft 126 kts 77°
2026-04-21 18:45 51.13483 -0.28672 1295 ft 129 kts 76°
2026-04-21 18:46 51.13672 -0.27239 1181 ft 135 kts 77°
2026-04-21 18:46 51.13878 -0.25742 976 ft 141 kts 74°
2026-04-21 18:46 51.14036 -0.24717 827 ft 145 kts 74°
2026-04-21 18:46 51.14255 -0.23147 571 ft 142 kts 77°
2026-04-21 18:47 51.14519 -0.21186 291 ft 129 kts 75°
2026-04-21 18:47 51.14644 -0.20278 216 ft 117 kts 77°
2026-04-21 18:47 51.14773 -0.19340 211 ft 59 kts 78°
2026-04-21 18:47 51.14847 -0.18795 209 ft 45 kts 77°
2026-04-21 18:48 51.14971 -0.18452 213 ft 26 kts 51°
2026-04-21 18:48 51.15049 -0.18298 211 ft 8 kts 51°
2026-04-21 18:48 51.15090 -0.18217 205 ft 10 kts 51°
2026-04-21 18:48 51.15109 -0.18173 210 ft 3 kts 64°
2026-04-21 18:49 51.15113 -0.18159 208 ft 0 kts 69°
2026-04-21 18:49 51.15114 -0.18154 212 ft 2 kts 70°
2026-04-21 18:50 51.15127 -0.18077 212 ft 6 kts 78°
2026-04-21 18:50 51.15132 -0.18052 213 ft 1 kts 57°
2026-04-21 18:50 51.15137 -0.18053 213 ft 1 kts 348°
2026-04-21 18:50 51.15168 -0.18067 211 ft 11 kts 344°
2026-04-21 18:51 51.15262 -0.18101 206 ft 16 kts 348°
2026-04-21 18:51 51.15375 -0.18139 212 ft 18 kts 348°
2026-04-21 18:51 51.15500 -0.18193 211 ft 20 kts 346°
2026-04-21 18:51 51.15622 -0.18234 217 ft 15 kts 355°
2026-04-21 18:52 51.15673 -0.18162 208 ft 10 kts 80°
2026-04-21 18:52 51.15688 -0.18040 209 ft 12 kts 77°
2026-04-21 18:52 51.15707 -0.17895 211 ft 14 kts 78°
2026-04-21 18:52 51.15730 -0.17731 206 ft 16 kts 77°
2026-04-21 18:53 51.15755 -0.17549 208 ft 18 kts 78°
2026-04-21 18:53 51.15782 -0.17352 210 ft 19 kts 77°
2026-04-21 18:53 51.15807 -0.17174 217 ft 13 kts 78°
2026-04-21 18:53 51.15831 -0.17092 208 ft 3 kts 33°
2026-04-21 18:54 51.15856 -0.17078 213 ft 5 kts 14°
2026-04-21 18:54 51.15898 -0.17055 215 ft 8 kts 27°
2026-04-21 18:54 51.15937 -0.17012 215 ft 4 kts 19°
2026-04-21 18:54 51.15966 -0.17029 216 ft 6 kts 323°
2026-04-21 18:55 51.15989 -0.17057 214 ft 7 kts 322°
2026-04-21 18:55 51.16001 -0.17072 209 ft 0 kts 321°